Weather in Krutoye

Russia / Lipetsk Oblast     53°01′04″N   39°48′56″E
temp.,
°C
wind,
m/s
gust,
m/s
humid.,
%
clouds,
%
prec.,
mm/h
press.,
hPa
HPBL,
m
27 october, wed
wed2700:00+3sw51454100 0.0 1026407
03:00+3sw51357100 0.0 1025368
06:00+2sw5146199 0.0 1024364
09:00+3sw6155894 0.0 1023481
12:00+8sw8134837 0.0 1021775
15:00+9sw713465 0.0 10191034
18:00+7wsw6145999 0.0 1019705
21:00+7wsw61167100 0.0 1019708
28 october, thu
thu2800:00+7w51076100 0.0 1019533
03:00+6wsw4980100 0.0 1019411
06:00+4sw4990100 0.0 1018232
09:00+6sw51280100 0.0 1017424
12:00+7sw61585100 0.6 1015641
15:00+7wsw61292100 1.7 1014612
18:00+7w51294100 0.8 1014512
21:00+8wnw51194100 1.2 1015471
29 october, fri
fri2900:00+8nnw71288100 0.3 1018704
03:00+6nne71080100 0.3 1022935
06:00+6ne6970100 0.0 10251039
09:00+6nne47726 0.0 1029644
12:00+7nne34657 0.0 1030731
15:00+7nne23575 0.0 1031706
18:00+4ene22655 0.0 103213
21:00+3sse22675 0.0 103315
30 october, sat
sat3000:00+2ssw22721 0.0 103422
03:00+2sw338222 0.0 103448
06:00+2sw338721 0.0 103457
09:00+3sw368197 0.0 1035163
12:00+8sw466035 0.0 1034442
15:00+10sw36545 0.0 1033574
18:00+6sw36685 0.0 103493
21:00+5sw37715 0.0 1034120
31 october, sun
sun3100:00+4sw37723 0.0 1034121
03:00+3sw36735 0.0 1034109
06:00+2sw36725 0.0 1034111
09:00+4sw38655 0.0 1034209
12:00+9sw474773 0.0 1033437
15:00+10ssw47445 0.0 1031546
18:00+6ssw37552 0.0 1031110
21:00+4ssw37580 0.0 1031119